Location: River House Observatory
(37.8577°N, 76.3548°W)
Time: 18:17:16
(UTC-04:00)

Daily predictions for brighter satellites

Satellite Brightness Start Highest point End
(mag) Time Altitude Azimuth Time Altitude Azimuth Time Altitude Azimuth
Okean 1-7 4.1 20:39:43 10° NNW 20:43:53 49° W 20:48:04 10° SSW
Cosmos 1606 4.2 20:43:03 10° NNE 20:46:09 22° ENE 20:49:12 10° SE
ERS-1 Rocket 3.6 20:44:20 10° SE 20:48:59 40° ENE 20:53:40 10° N
ALOS 2.4 20:44:32 10° S 20:49:12 80° WSW 20:53:55 10° NNW
Meteor 1-27 Rocket 4.5 20:44:51 10° N 20:49:49 33° ENE 20:54:44 10° SE
Cosmos 1892 2.8 20:46:19 10° S 20:50:08 82° W 20:54:01 10° N
Cosmos 407 Rocket 3.9 20:47:32 10° N 20:52:41 50° ENE 20:57:49 10° SE
Cosmos 1340 Rocket 4.3 20:51:01 10° SSW 20:54:49 42° WNW 20:58:40 10° N
Cosmos 2074 Rocket 4.1 20:53:42 10° S 20:59:59 87° W 21:06:17 10° N
H-2A R/B 3.3 20:59:32 10° S 21:03:10 57° W 21:06:51 10° NNW
Cosmos 1452 Rocket 3.6 20:58:05 10° S 21:03:10 53° ESE 21:08:19 10° NNE
Cosmos 1782 2.8 21:01:29 10° N 21:05:31 67° E 21:09:31 10° SSE
Cosmos 1674 Rocket 3.5 21:03:08 10° N 21:07:36 72° E 21:11:59 10° SSE
Cosmos 1190 Rocket 4.0 21:03:08 10° NNW 21:08:22 87° ENE 21:13:34 10° SSE
Cosmos 1610 Rocket 4.5 21:03:48 10° S 21:09:56 77° E 21:16:10 10° N
ATLAS 5 CENTAUR R/B 3.0 21:03:57 10° NW 21:09:56 58° WSW 21:16:16 10° SSE
USA 186 3.0 21:07:41 10° S 21:10:39 41° W 21:13:46 10° NNW
Okean 2 Rocket 4.2 21:07:53 11° SE 21:11:10 24° E 21:14:43 10° NE
Atlas Centaur 2 2.6 21:10:29 10° WSW 21:13:20 21° S 21:15:18 14° SSE
Resurs 01 Rocket 4.5 21:14:24 10° WSW 21:16:38 14° W 21:18:53 10° WNW
OAO 3 Rocket 4.0 21:12:23 10° SW 21:16:46 32° SSE 21:20:23 14° E
CENTAUR R/B 3.9 21:09:12 10° NW 21:16:51 51° WSW 21:24:48 10° S
Nadezhda 3 Rocket 4.2 21:12:43 10° N 21:18:58 56° E 21:25:07 10° SSE
Cosmos 1939 Rocket 2.9 21:16:52 13° SSE 21:20:15 57° ENE 21:24:08 10° N
Cosmos 1782 Rocket 4.1 21:17:43 10° SSE 21:21:52 39° E 21:26:03 10° NNE
Meteor 2-6 Rocket 4.4 21:16:04 10° N 21:22:02 87° W 21:27:49 10° S
Cosmos 1184 Rocket 3.4 21:19:36 14° SSE 21:22:04 36° E 21:25:10 10° NNE
Cosmos 1242 Rocket 4.1 21:19:40 10° NNE 21:22:30 21° ENE 21:23:49 17° ESE
Sich 1 Rocket 3.7 21:18:06 10° S 21:22:41 87° W 21:27:17 10° N
YAOGAN 6 4.2 21:21:31 16° E 21:22:49 19° ENE 21:25:23 10° NNE
ISS -2.6 21:19:58 10° WSW 21:23:10 56° NW 21:26:24 10° NE
Cosmos 1408 2.8 21:20:51 10° S 21:24:24 49° E 21:27:56 10° NNE
Cosmos 1238 Rocket 3.1 21:22:36 10° N 21:25:51 40° E 21:28:10 19° SE
SPOT 5 3.5 21:25:17 16° SE 21:29:13 47° ENE 21:34:21 10° N
COSMOS 2406 4.3 21:26:13 10° NW 21:31:34 41° WSW 21:36:52 10° S
Cosmos 1833 Rocket 4.3 21:28:47 10° N 21:32:46 19° NE 21:35:46 13° E
Cosmos 2278 Rocket 2.1 21:29:14 10° SSW 21:34:53 83° ESE 21:40:36 10° NNE
Cosmos 1825 2.1 21:31:13 10° S 21:35:00 74° E 21:38:50 10° N
Cosmos 1844 Rocket 3.8 21:30:03 10° SW 21:35:27 47° WNW 21:40:54 10° N
Cosmos 2084 4.1 21:34:08 10° SW 21:37:54 50° NW 21:41:38 10° NNE
Cosmos 1975 Rocket 3.4 21:34:27 10° N 21:38:37 47° E 21:40:50 25° SE
Cosmos 676 Rocket 4.0 21:34:01 10° NNW 21:39:14 83° WSW 21:43:24 16° SSE
Cosmos 1174 3.2 21:37:05 10° NW 21:40:11 67° WSW 21:41:30 29° SSE
Cosmos 1844 4.4 21:34:49 10° SW 21:40:29 58° WNW 21:46:13 10° NNE
BREEZE-M DEB (TANK) 3.5 21:40:11 10° W 21:42:14 31° SSW 21:43:47 21° SSE
Cosmos 1954 Rocket 3.9 21:37:59 10° NNW 21:43:14 82° ENE 21:46:48 21° SSE
Cosmos 2341 Rocket 4.0 21:37:42 10° S 21:44:01 79° E 21:50:17 10° N
Cosmos 1908 Rocket 4.1 21:42:12 10° SSW 21:46:31 59° W 21:50:55 10° N
Intercosmos 25 3.3 21:47:59 33° SE 21:49:02 45° E 21:52:05 10° NNE
Cosmos 1378 Rocket 3.6 21:45:00 10° N 21:49:19 79° W 21:52:23 19° S
COS B Rocket 3.2 21:45:28 10° N 21:49:26 76° W 21:51:57 19° S
SL-8 Rocket 4.1 21:49:49 18° SSE 21:54:28 56° E 22:00:32 10° NNE
Cosmos 962 Rocket 4.5 21:49:15 10° S 21:55:24 85° W 22:01:40 10° N
Cosmos 2082 Rocket 3.0 21:51:20 10° N 21:56:36 37° ENE 21:58:57 26° ESE
Meteor 1-14 Rocket 4.4 21:53:53 22° SSE 21:57:18 51° E 22:02:43 10° NNE
Cosmos 1741 Rocket 4.3 21:53:06 10° N 21:58:13 52° ENE 22:00:21 32° SE
deb Chang Zheng 4 4.4 21:54:48 10° N 21:59:07 53° WNW 22:03:26 10° SSW
Timation 2 Rocket 3.9 21:55:17 10° NNW 22:01:15 68° ENE 22:04:13 31° SE
Cosmos 1023 Rocket 4.4 21:57:52 10° NNW 22:03:00 83° ENE 22:05:25 32° SSE
USA 245 3.3 22:05:04 47° E 22:05:25 49° ENE 22:09:19 10° N
GPS 2-05 Rocket1 2.9 22:03:31 10° W 22:07:11 61° S 22:07:26 59° SSE
Cosmos 2297 3.6 22:05:29 10° SSW 22:11:10 83° ESE 22:16:55 10° NNE
Envisat 3.9 22:09:02 15° SSW 22:13:02 45° W 22:17:54 10° NNW
H-2A R/B 3.3 22:12:33 17° SSW 22:15:24 37° W 22:19:21 10° NNW
Cosmos 2151 Rocket 3.7 22:16:23 49° SE 22:17:15 59° E 22:21:43 10° NNE
NOAA 11 4.2 22:15:50 38° SE 22:17:53 65° ENE 22:23:21 10° N
SEDSat Delta rocket 4.3 22:14:28 10° SW 22:16:42 23° SSW 22:16:42 23° SSW
CZ-3C R/B 3.8 22:05:13 10° WSW 22:21:41 24° SSW 22:23:56 22° S
APEX 4.2 22:18:21 10° SW 22:22:06 54° WNW 22:27:00 10° NNE
COSMOS 2487 3.9 22:19:07 10° NW 22:22:23 32° WSW 22:23:26 27° SW
CZ-4 R/B 3.7 22:18:05 10° NNE 22:22:43 61° ESE 22:23:30 52° SE
OAO 1 Rocket 4.4 22:18:56 10° WSW 22:24:09 60° S 22:25:17 48° ESE
Cosmos 864 Rocket 4.4 22:21:57 35° SSE 22:24:33 65° E 22:30:39 10° NNE
Cosmos 614 Rocket 3.8 22:20:18 10° NNW 22:25:25 86° ENE 22:26:48 49° SSE
Cosmos 2366 rocket 3.9 22:32:19 32° S 22:35:27 85° E 22:41:49 10° N
Okean 1 Rocket 4.3 22:38:38 29° ENE 22:38:38 29° ENE 22:41:31 10° NNE
Cosmos 1140 Rocket 4.2 22:32:45 10° NNW 22:37:39 45° WSW 22:39:35 31° SSW
CZ-4C R/B 3.7 22:41:21 53° NE 22:41:21 53° NE 22:44:55 10° N
Landsat 7 3.8 22:40:32 62° ESE 22:40:55 65° ENE 22:45:39 10° N
USA 234 3.3 22:35:25 10° NE 22:41:43 49° SE 22:43:02 43° SSE
Cosmos 2369 Rocket 4.2 22:45:04 14° ENE 22:45:04 14° ENE 22:46:19 10° ENE
H-2A R/B 2.2 22:42:13 52° ESE 22:43:00 58° ENE 22:48:13 10° N
CZ-4B R/B 4.0 22:42:57 10° N 22:47:45 54° WNW 22:50:13 26° SW
ARGOS 3.3 22:46:30 45° SSW 22:48:02 65° WSW 22:53:22 10° NNW
Timation 1 Rocket 4.2 22:46:57 38° SSW 22:49:26 84° ESE 22:55:28 10° NNE
SL-08 RB Rocket 3.8 22:49:27 62° SW 22:49:58 69° WSW 22:54:36 10° NNW
Terra 1.9 22:56:47 64° ENE 22:56:47 64° ENE 23:01:22 10° N
SPOT 1/Viking Rocket 4.4 22:57:08 35° SW 22:58:37 44° W 23:03:36 10° NNW
OAO 3 Rocket 4.1 22:55:06 10° WSW 22:58:14 37° SW 22:58:14 37° SW
ISS 0.1 22:58:47 10° NW 23:00:11 12° NNW 23:01:36 10° N
Meteor 1-20 Rocket 4.1 23:01:00 60° SSW 23:02:04 83° W 23:07:38 10° N
Spot 4 4.0 23:11:30 64° NE 23:11:30 64° NE 23:15:53 10° N
CARTOSAT-1 4.1 23:15:44 57° NW 23:15:44 57° NW 23:19:17 10° NNW
Cosmos 1833 Rocket 2.9 23:11:35 10° NNW 23:17:06 59° WSW 23:17:28 58° SW
Okean 1 4.4 23:15:41 10° NNW 23:18:36 44° NNW 23:18:36 44° NNW
Cosmos 1727 Rocket 4.5 23:14:55 10° NNW 23:20:53 53° W 23:22:23 43° SW
Lacrosse 5 2.8 23:25:04 40° NE 23:25:04 40° NE 23:28:21 10° NE
USA 229 DEB 4.0 23:25:43 10° NW 23:32:38 55° WSW 23:33:32 52° SW
USA 229 4.0 23:25:49 10° NW 23:32:44 55° WSW 23:33:38 52° SW
Iridium 4 Rocket 4.0 23:29:49 10° N 23:35:10 60° ENE 23:35:10 60° ENE
ASTEX 1 3.8 23:33:49 10° N 23:38:12 59° NW 23:38:12 59° NW
BREEZE-M DEB (TANK) 4.5 23:34:19 10° WNW 23:38:18 24° W 23:38:18 24° W
Cosmos 2082 Rocket 3.5 23:35:42 10° NW 23:40:29 29° WSW 23:40:49 28° WSW
Meteor 2-4 Rocket 4.1 23:43:35 10° N 23:48:06 54° NE 23:48:06 54° NE
NOSS 3-1 (A) 4.2 23:43:34 10° NNW 23:51:12 66° NE 23:52:37 57° E
Cosmos 1821 Rocket 3.9 23:52:03 80° W 23:52:03 80° W 23:58:17 10° N
Cosmos 1605 Rocket 4.3 23:53:28 57° ENE 23:53:28 57° ENE 23:59:04 10° NNE
